Terug naar catalogus

LDPE-1

LostCommunicatieGEO
NORAD 49818·PAYLOAD·🇺🇸 United States

Gelanceerd Dec 7, 2021 vanaf Cape Canaveral Space Force Station

Loading…

TLE

VersSource: Space-Track

Epoch: Sep 12, 2026, 14:03 UTC

1 49818U 21118B   26255.58601860  .00000002  00000-0  00000+0 0  9998
2 49818   5.8744  62.4420 0014804 192.9106 340.7806  0.99069964   485

Volg LDPE-1 in realtime met AllMySat

Download on the App Store